Other Public Products
Issued by NWS Grand Forks, ND

Home | Current Version | Previous Version | Graphics & Text | Print | Product List | Glossary On
Versions: 1 2 3 4 5 6 7 8 9 10 11 12 13 14 15 16 17 18 19 20 21 22 23 24 25 26 27 28 29 30 31 32 33 34 35 36 37 38 39 40 41 42 43 44 45 46 47 48 49 50
000
FPUS83 KFGF 010531
OPUFGF
PRAIRIE TO PINES WEATHER ROUNDUP
NATIONAL WEATHER SERVICE EASTERN NORTH DAKOTA/GRAND FORKS ND
1200 AM CDT SAT AUG 01 2015

 **SATELLITE DATA USED TO AUGMENT SKY COVER AT AUTOMATED STATIONS**
 *****  WEATHER ACROSS EASTERN NORTH DAKOTA  *****

CITY           SKY/WX    TMP DP  RH WIND       PRES   REMARKS
GRAND FORKS    CLEAR     57  52  83 W6        29.97S
GRAND FORKS AF CLEAR     59  51  76 W6        29.98S
GRAND CITY NWS   N/A     63 N/A N/A MISG        N/A
BUXTON         NOT AVBL
DEVILS LAKE    CLEAR     61  50  67 CALM      30.00F
FARGO          CLEAR     61  56  83 CALM      29.99S
WAHPETON ARPT  CLEAR     68  55  64 CALM      30.00S
$$

 *****  WEATHER ACROSS CENTRAL AND WESTERN NORTH DAKOTA  *****

CITY           SKY/WX    TMP DP  RH WIND       PRES   REMARKS
JAMESTOWN      CLEAR     62  57  83 CALM      30.02S
BISMARCK       CLEAR     62  57  83 NE3       30.04R
MINOT          CLEAR     64  54  69 SW5       30.01S
MINOT AFB      CLEAR     56  54  92 W2        30.01R
GARRISON         N/A     62  57  83 CALM      30.04R
WILLISTON      CLEAR     70  50  49 NE5       30.03R
DICKINSON      CLEAR     63  51  65 E9        30.03F
HETTINGER      CLEAR     67  47  48 SE7       30.07S
$$

 *****  OTHER OBSERVATIONS NORTHEAST NORTH DAKOTA  *****

CITY           SKY/WX    TMP DP  RH WIND       PRES   REMARKS
WALHALLA       FAIR      64  54  68 MISG      29.97F
LANGDON        FAIR      54  52  94 NW3       30.01F
CAVALIER       FAIR      59  55  88 W8        29.97S
GRAFTON        FAIR      64  57  77 W6        29.97F
CANDO          FAIR      55  54  94 W3        30.02S
FORT TOTTEN      N/A     61  55  81 CALM      29.95S
ROLLA          FAIR      54  52  94 W5        30.03F
RUGBY          NOT AVBL
 ***** THE ABOVE OBSERVATIONS ARE NON NWS ARE NOT QUALITY
        CONTROLLED AND MAY MIS-REPORT RAIN FOR SNOW...
$$

 *****  OTHER OBSERVATIONS SOUTHEAST NORTH DAKOTA *****

CITY           SKY/WX    TMP DP  RH WIND       PRES   REMARKS
COOPERSTOWN    NOT AVBL
VALLEY CITY    FAIR      64  63  94 CALM      30.02F
OAKES            N/A     63  63 100 NE5       30.02S
GWINNER          N/A     64  61  88 N6        30.02S
BUFFALO        NOT AVBL
WYNDMERE       NOT AVBL
 ***** THE ABOVE OBSERVATIONS ARE NON NWS ARE NOT QUALITY
       CONTROLLED AND MAY MIS-REPORT RAIN FOR SNOW...
$$

  *****  WEATHER ACROSS NORTHERN MINNESOTA  *****

CITY           SKY/WX    TMP DP  RH WIND       PRES   REMARKS
FLAG ISLAND    CLEAR     64  52  63 W12       29.91S
WARROAD        CLEAR     61  54  77 W6        29.95S
ROSEAU         CLEAR     59  54  82 SW6       29.95S
HALLOCK        CLEAR     59  54  82 W3        29.95F
THF RVR FALLS  CLEAR     59  52  77 CALM      29.98S
HALSTAD        NOT AVBL
FOSSTON        CLEAR     54  48  82 CALM      30.00S
BAUDETTE       CLEAR     56  49  77 W3        29.94S
WASKISH        MOCLDY    66  55  68 W9        29.95S
CROOKSTON      CLEAR     61  54  77 CALM      29.98F
$$
  *****  WEATHER ACROSS CENTRAL AND WEST MINNESOTA  *****

CITY           SKY/WX    TMP DP  RH WIND       PRES   REMARKS
BEMIDJI        CLEAR     58  51  77 CALM      29.99S
PARK RAPIDS    CLEAR     61  53  75 W3        30.01R
WADENA         PTCLDY    61  55  82 CALM      30.01S
DETROIT LAKES  CLEAR     64  55  72 CALM      30.03S
MOORHEAD       CLEAR     64  55  72 CALM      30.01S
FERGUS FALLS   CLEAR     64  57  77 NE3       30.01R
ELBOW LAKE     FAIR      66  65  97 CALM      30.01S
MORRIS MN      CLEAR     64  61  88 CALM      30.00S
STAPLES        PTCLDY    61  55  82 W3        30.01S
WHEATON        CLEAR     61  59  94 CALM      30.02R
$$
  *****  WEATHER ELSEWHERE ACROSS MINNESOTA  *****

CITY           SKY/WX    TMP DP  RH WIND       PRES   REMARKS
DULUTH         CLEAR     62  49  62 W8        29.95R
INTRNTL FALLS  CLEAR     60  51  72 W6        29.92R
ELY            PTCLDY    59  55  88 N6        29.94R
CLOQUET        CLEAR     63  46  55 W5        29.96F
BRAINERD       PTCLDY    59  54  83 CALM      30.01R
HIBBING        CLEAR     64  47  53 W8        29.95R
ALEXANDRIA     PTCLDY    67  61  81 CALM      30.03S
SAINT CLOUD    PTCLDY    65  58  78 CALM      30.00R
MINNEAPOLIS    FAIR      72  57  59 W6        30.00S
$$

  *****  WEATHER ACROSS SOUTH DAKOTA  *****

CITY           SKY/WX    TMP DP  RH WIND       PRES   REMARKS
SIOUX FALLS    CLEAR     72  62  71 SW6       30.07S
BROOKINGS      CLEAR     66  57  72 SW8       30.07S
WATERTOWN      CLEAR     66  59  78 SW8       30.04S
HURON          CLEAR     72  58  61 SW10      30.04S
SISSETON         N/A     66  61  84 NW3       29.99S
ABERDEEN       CLEAR     61  58  90 SW3       30.03R
MITCHELL       CLEAR     72  64  76 SW8       30.07S
PIERRE         CLEAR     72  54  53 S3        30.05S
MOBRIDGE       CLEAR     68  54  60 SE3       30.03R
RAPID CITY     CLEAR     62  55  77 W3        30.13S
$$

  *****  SOME WEATHER IN NEARBY STATES *****

CITY           SKY/WX    TMP DP  RH WIND       PRES   REMARKS
GLASGOW MT     CLEAR     70  48  45 N3        29.99S
GREAT FALLS MT CLEAR     64  39  39 SW8       30.06S
CHEYENNE WY    CLEAR     69  48  47 S10       30.29F
SCOTTSBLUFF NE CLEAR     67  57  70 E7        30.16S
OMAHA NE       CLEAR     75  70  84 CALM      30.06R
DES MOINES IA  PTCLDY    76  63  64 S5        30.07R
DAVENPORT IA   CLEAR     64  59  83 NW6       30.05R
CHICAGO IL     CLEAR     70  52  52 W8        29.98R
EAU CLAIRE WI  PTCLDY    62  53  72 SW5       29.98S
LA CROSSE WI   PTCLDY    66  57  72 SE3       30.00R
$$

  *****  SOME NATIONAL WEATHER *****

CITY           SKY/WX    TMP DP  RH WIND       PRES   REMARKS
LA GUARDIA NY  CLEAR     82  57  42 S6        29.82F
RALEIGH NC     MOCLDY    71  65  81 CALM      29.95S
ATLANTA GA     CLOUDY    78  62  57 N9        29.98S
NEW ORLEANS LA PTCLDY    86  64  47 NE14      29.93S
OKLAHOMA CITY  MOCLDY    73  72  96 CALM      30.09S
ALBUQUERQUE NM CLOUDY    71  58  63 SE8       30.31R
SALT LAKE CITY PTCLDY    76  33  21 S5        30.11S
LOS ANGELES CA CLOUDY    68  65  90 SW8       29.98R
BOISE ID       CLEAR     83  41  22 CALM      30.01S
SEATTLE WA     CLEAR     77  39  25 N10       29.99S
$$

*** WEATHER ACROSS MANITOBA...SASKATCHEWAN AND ONTARIO ***
                ***ONTARIO***

CITY           SKY/WX    TMP DP  RH WIND       PRES   REMARKS
GERALDTON      PTCLDY    57  55  94 W7        29.75S
THUNDER BAY    PTCLDY    59  55  88 W7        29.83S
SIOUX LOOKOUT  PTCLDY    59  55  88 W7        29.86R
TORONTO        PTCLDY    66  61  82 W7        29.79S
BIG TROUT LK   CLEAR     57  52  82 W6        29.64S
PICKLE LAKE    NOT AVBL
DRYDEN         CLEAR     57  55  94 W8        29.88S
KENORA         PTCLDY    63  54  72 W6        29.92R
$$
                *** MANITOBA***

CITY           SKY/WX    TMP DP  RH WIND       PRES   REMARKS
BRANDON        CLEAR     52  50  93 NW8       30.00S
DAUPHIN        CLEAR     57  52  82 W7        29.95F
ISLAND LAKE    PTCLDY    61  57  88 W16       29.74F
PILOT MOUND      N/A     55  50  82 W3          N/A
THE PAS        PTCLDY    55  52  88 VRB2      29.87F
THOMPSON       PTCLDY    57  54  88 W6        29.75F
WINNIPEG       CLEAR     59  55  88 W8        29.94S
LYNN LAKE      PTCLDY    55  52  88 NW7       29.83S
CHURCHILL      MOCLDY    57  50  77 NW18G25   29.56
$$
                ***SASKATCHEWAN***

CITY           SKY/WX    TMP DP  RH WIND       PRES   REMARKS
ESTEVAN        PTCLDY    57  52  82 VRB2      30.04S
KINDERSLEY     PTCLDY    64  54  68 SE10      29.96F
LLOYDMINSTER   CLEAR     64  52  63 SW9       29.94S
PRINCE ALBERT  MOCLDY    57  54  88 CALM      29.93F
REGINA         CLEAR     57  55  94 SE3       30.03F
YORKTON        CLEAR     63  54  72 SW9       30.00F
N. BATTLEFORD  CLEAR     59  54  82 SE7       29.95F


USA.gov is the U.S. government's official web portal to all federal, state and local government web resources and services.